星链-3584 (STARLINK-3584 )

导读

STARLINK-3584是美国SpaceX公司星链(Starlink)卫星互联网项目的一颗低轨通信卫星,于2022年3月3日发射。星链计划旨在通过数千颗低地球轨道卫星组网,为全球偏远地区提供高速低延迟宽带互联网接入,该卫星是星链星座组网的组成部分,助力实现全球无缝网络覆盖,目前已在轨参与星座运行,服务全球多地用户。不过星链大规模部署也引发太空轨道安全和天文观测影响等争议。

基本信息
目录编号:
51885
目录名称:
STARLINK-3584
国际标识:
2022-022AK
轨道中心:
EARTH
卫星名称:
星链-3584
卫星全名:
星链-3584 (STARLINK-3584 )
卫星状态:
在轨 (已飞行1567 天)
发射日期:
2022-03-03 UTC
国别 :
美国 (US)
星等 :
--
轨道信息
数据来源 国际轨道数据
星历时间: 2026-06-17T20:28:54+0800
4小时前
查看轨道信息
半长轴: 6917.907km
偏心率: 0.0001235
轨道倾角: 53.161°
近地点辐角 85.733°
升交点赤经 270.865°
平近点角 274.380°
近地点: 538.915km
远地点: 540.625km
周期: 95.438分钟
每日圈数: 15.088315
详细信息
固有亮度:
5
最大亮度:
2.5
卫星平台:
Starlink v1.5
覆盖范围:
全球
运营商:
太空探索技术公司
运营商所在国:
美国
制造商(研发单位):
太空探索技术公司
制造商所在国:
美国
使用方式:
暂无
卫星简介
星链(Starlink)计划是由太空探索技术公司(SpaceX)提出的一个巨型低轨卫星互联网星座项目,计划在2019年至2024年间在太空搭建由约1.2万颗卫星组成的“星链”网络,其中1584颗将部署在地球上空550千米处的近地轨道,并从2020年开始工作。该卫星仍在工作。
2D轨道图
3D轨道图
轨道高度分析图
轨道倾角分析图
轨道综合分析图
查看轨道综合分析图